Orange City, IA

9:14 AM CST on December 12, 2017 (GMT -0600)
Orange City Municipal

Weather History for KORC - February, 2014

Change the Weather History Date:

Monday, February 17, 2014

  Actual Average Record
Temperature  
Mean Temperature 34 °F -  
Max Temperature 42 °F 33 °F 55 °F (2011)
Min Temperature 26 °F 19 °F -8 °F (1953)
Degree Days  
Heating Degree Days 31    
Moisture  
Dew Point 27 °F    
Average Humidity 77    
Maximum Humidity 93    
Minimum Humidity 57    
Precipitation  
Precipitation 0.11 in - - ()
Sea Level Pressure  
Sea Level Pressure 29.78 in    
Wind  
Wind Speed 15 mph (WSW)    
Max Wind Speed 24 mph    
Max Gust Speed 31 mph    
Visibility 8 miles    
Events Snow    
Averages and records for this station are not official NWS values.
T = Trace of Precipitation, MM = Missing Value Source: NWS Daily Summary

Daily Weather History Graph

Daily Weather History Graph

Search for Another Location

Airport or City:

Trip Planner

Search our weather history database for the weather conditions in past years. The results will help you decide how hot, cold, wet, or windy it might be!

Date:

Astronomy

Feb. 17, 2014 Rise Set
Actual Time 7:18 AM CST 5:58 PM CST
Civil Twilight 6:49 AM CST 6:27 PM CST
Nautical Twilight 6:16 AM CST 7:00 PM CST
Astronomical Twilight 5:43 AM CST 7:33 PM CST
Moon 8:59 PM CST (2/17) 8:14 AM CST (2/17)
Length of Visible Light 11h 37m
Length of Day
10h 39m
Waning Gibbous, 93% of the Moon is Illuminated
Feb 17
Waning Gibbous
Feb 22
Last Quarter
Mar 1
New
Mar 8
First Quarter
Mar 16
Full

Hourly Weather History & Observations

Time (CST) Temp. Windchill Dew Point Humidity Pressure Visibility Wind Dir Wind Speed Gust Speed Precip Events Conditions
12:15 AM 26.6 °F 13.1 °F 21.2 °F 80% 29.76 in 10.0 mi SSE 19.6 mph 24.2 mph N/A   Overcast
12:35 AM 26.6 °F 13.4 °F 21.2 °F 80% 29.75 in 10.0 mi SSE 18.4 mph 24.2 mph N/A   Mostly Cloudy
12:55 AM 26.6 °F 15.2 °F 21.2 °F 80% 29.76 in 10.0 mi SSE 13.8 mph 25.3 mph N/A   Scattered Clouds
1:15 AM 26.6 °F 14.3 °F 21.2 °F 80% 29.75 in 7.0 mi South 16.1 mph 21.9 mph N/A   Mostly Cloudy
1:35 AM 28.4 °F 15.8 °F 24.8 °F 86% 29.74 in 4.0 mi South 18.4 mph 26.5 mph N/A   Overcast
1:55 AM 28.4 °F 18.0 °F 24.8 °F 86% 29.72 in 5.0 mi South 12.7 mph 21.9 mph N/A Snow Light Snow
2:15 AM 30.2 °F 20.2 °F 26.6 °F 86% 29.73 in 5.0 mi South 12.7 mph 19.6 mph N/A Snow Light Snow
2:35 AM 28.4 °F 18.0 °F 24.8 °F 86% 29.74 in 5.0 mi South 12.7 mph 20.7 mph N/A Snow Light Snow
2:55 AM 28.4 °F 18.0 °F 26.6 °F 93% 29.73 in 0.8 mi South 12.7 mph - N/A Snow Snow
3:15 AM 28.4 °F 18.5 °F 26.6 °F 93% 29.73 in 1.2 mi SSW 11.5 mph - N/A Snow Light Snow
3:35 AM 28.4 °F 17.5 °F 26.6 °F 93% 29.72 in 0.8 mi SSW 13.8 mph - N/A Snow Snow
3:55 AM 28.4 °F 15.8 °F 26.6 °F 93% 29.72 in 0.5 mi SSW 18.4 mph 21.9 mph N/A Snow Heavy Snow
4:15 AM 28.4 °F 16.6 °F 26.6 °F 93% 29.72 in 1.2 mi SSW 16.1 mph - N/A Snow Light Snow
4:35 AM 28.4 °F 17.5 °F 26.6 °F 93% 29.71 in 1.2 mi SSW 13.8 mph - N/A Snow Light Snow
4:55 AM 28.4 °F 17.5 °F 26.6 °F 93% 29.71 in 2.5 mi SSW 13.8 mph - N/A Snow Light Snow
5:15 AM 28.4 °F 17.0 °F 26.6 °F 93% 29.72 in 3.0 mi SW 15.0 mph - N/A   Overcast
5:35 AM 30.2 °F 19.3 °F 26.6 °F 86% 29.74 in 4.0 mi WSW 15.0 mph - N/A   Overcast
5:55 AM 32.0 °F 19.5 °F 26.6 °F 80% 29.73 in 7.0 mi WNW 21.9 mph - N/A   Overcast
6:15 AM 30.2 °F 18.5 °F 26.6 °F 86% 29.74 in 7.0 mi WNW 17.3 mph - N/A   Overcast
6:35 AM 30.2 °F 20.2 °F 26.6 °F 86% 29.74 in 10.0 mi WNW 12.7 mph - N/A   Overcast
6:55 AM 30.2 °F 20.8 °F 26.6 °F 86% 29.74 in 10.0 mi WNW 11.5 mph - N/A   Scattered Clouds
7:15 AM 30.2 °F 22.6 °F 26.6 °F 86% 29.75 in 10.0 mi WNW 8.1 mph - N/A   Clear
7:35 AM 30.2 °F 21.3 °F 26.6 °F 86% 29.76 in 10.0 mi WNW 10.4 mph - N/A   Clear
7:55 AM 28.4 °F 20.4 °F 24.8 °F 86% 29.76 in 10.0 mi West 8.1 mph - N/A   Clear
8:15 AM 28.4 °F 19.7 °F 24.8 °F 86% 29.77 in 10.0 mi West 9.2 mph - N/A   Clear
8:35 AM 28.4 °F 19.7 °F 24.8 °F 86% 29.77 in 10.0 mi West 9.2 mph - N/A   Clear
8:55 AM 30.2 °F 20.2 °F 26.6 °F 86% 29.77 in 10.0 mi West 12.7 mph - N/A   Clear
9:15 AM 32.0 °F 22.5 °F 28.4 °F 87% 29.78 in 10.0 mi West 12.7 mph - N/A   Clear
9:35 AM 33.8 °F 23.2 °F 28.4 °F 81% 29.78 in 10.0 mi West 17.3 mph - N/A   Clear
9:55 AM 33.8 °F 23.5 °F 28.4 °F 81% 29.79 in 10.0 mi West 16.1 mph - 0.03 in   Clear
10:15 AM 35.6 °F 24.8 °F 28.4 °F 75% 29.79 in 10.0 mi West 19.6 mph - 0.03 in   Clear
10:35 AM 35.6 °F 24.2 °F 30.2 °F 81% 29.79 in 10.0 mi WNW 21.9 mph - 0.06 in   Clear
10:55 AM 35.6 °F 24.0 °F 28.4 °F 75% 29.80 in 10.0 mi WNW 23.0 mph 28.8 mph 0.08 in   Clear
11:15 AM 37.4 °F 27.8 °F 28.4 °F 70% 29.81 in 10.0 mi WNW 17.3 mph 23.0 mph N/A   Clear
11:35 AM 37.4 °F 27.2 °F 26.6 °F 65% 29.82 in 10.0 mi WNW 19.6 mph - N/A   Clear
11:55 AM 37.4 °F 27.5 °F 28.4 °F 70% 29.82 in 10.0 mi WNW 18.4 mph 23.0 mph N/A   Clear
12:15 PM 37.4 °F 27.5 °F 28.4 °F 70% 29.81 in 10.0 mi WNW 18.4 mph 25.3 mph N/A   Clear
12:35 PM 37.4 °F 27.5 °F 28.4 °F 70% 29.81 in 10.0 mi WNW 18.4 mph 25.3 mph N/A   Clear
12:55 PM 39.2 °F 29.3 °F 30.2 °F 70% 29.80 in 10.0 mi WNW 20.7 mph 26.5 mph N/A   Clear
1:15 PM 39.2 °F 29.0 °F 30.2 °F 70% 29.80 in 10.0 mi WNW 21.9 mph 26.5 mph N/A   Clear
1:35 PM 39.2 °F 28.5 °F 30.2 °F 70% 29.80 in 10.0 mi WNW 24.2 mph 27.6 mph N/A   Clear
1:55 PM 41.0 °F 31.4 °F 30.2 °F 65% 29.80 in 10.0 mi WNW 21.9 mph 31.1 mph N/A   Clear
2:15 PM 42.8 °F 33.8 °F 30.2 °F 61% 29.80 in 10.0 mi WNW 21.9 mph 31.1 mph N/A   Clear
2:35 PM 42.8 °F 34.0 °F 30.2 °F 61% 29.80 in 10.0 mi WNW 20.7 mph 28.8 mph N/A   Clear
2:55 PM 42.8 °F 33.8 °F 30.2 °F 61% 29.80 in 10.0 mi WNW 21.9 mph 26.5 mph N/A   Clear
3:15 PM 42.8 °F 33.8 °F 30.2 °F 61% 29.80 in 10.0 mi WNW 21.9 mph - N/A   Clear
3:35 PM 42.8 °F 34.5 °F 30.2 °F 61% 29.81 in 10.0 mi WNW 18.4 mph - N/A   Clear
3:55 PM 42.8 °F 34.3 °F 30.2 °F 61% 29.81 in 10.0 mi WNW 19.6 mph 24.2 mph N/A   Clear
4:15 PM 42.8 °F 34.3 °F 28.4 °F 57% 29.81 in 10.0 mi WNW 19.6 mph 24.2 mph N/A   Clear
4:35 PM 42.8 °F 35.1 °F 28.4 °F 57% 29.82 in 10.0 mi WNW 16.1 mph - N/A   Clear
4:55 PM 42.8 °F 36.2 °F 30.2 °F 61% 29.82 in 10.0 mi WNW 12.7 mph - N/A   Clear
5:15 PM 41.0 °F 35.2 °F 30.2 °F 65% 29.83 in 10.0 mi West 9.2 mph - N/A   Clear
5:35 PM 39.2 °F 34.2 °F 30.2 °F 70% 29.83 in 10.0 mi West 6.9 mph - N/A   Clear
5:55 PM 37.4 °F 32.8 °F 30.2 °F 75% 29.83 in 10.0 mi West 5.8 mph - N/A   Clear
6:15 PM 35.6 °F - 30.2 °F 81% 29.83 in 10.0 mi Calm Calm - N/A   Clear
6:35 PM 35.6 °F 30.7 °F 30.2 °F 81% 29.83 in 10.0 mi West 5.8 mph - N/A   Clear
6:55 PM 35.6 °F 30.7 °F 28.4 °F 75% 29.84 in 10.0 mi WSW 5.8 mph - N/A   Clear
7:15 PM 35.6 °F 31.7 °F 28.4 °F 75% 29.83 in 10.0 mi South 4.6 mph - N/A   Clear
7:35 PM 35.6 °F 31.7 °F 28.4 °F 75% 29.83 in 10.0 mi South 4.6 mph - N/A   Clear
7:55 PM 33.8 °F 29.6 °F 26.6 °F 75% 29.82 in 10.0 mi SSW 4.6 mph - N/A   Clear
8:15 PM 33.8 °F 29.6 °F 26.6 °F 75% 29.81 in 10.0 mi South 4.6 mph - N/A   Clear
8:35 PM 35.6 °F 29.9 °F 26.6 °F 70% 29.81 in 10.0 mi South 6.9 mph - N/A   Clear
8:55 PM 33.8 °F 28.6 °F 24.8 °F 70% 29.80 in 10.0 mi South 5.8 mph - N/A   Clear
9:15 PM 33.8 °F 29.6 °F 24.8 °F 70% 29.79 in 10.0 mi South 4.6 mph - N/A   Clear
9:35 PM 33.8 °F 29.6 °F 24.8 °F 70% 29.79 in 10.0 mi South 4.6 mph - N/A   Clear
9:55 PM 33.8 °F 29.6 °F 24.8 °F 70% 29.79 in 10.0 mi South 4.6 mph - N/A   Clear
10:15 PM 33.8 °F 28.6 °F 24.8 °F 70% 29.79 in 10.0 mi South 5.8 mph - N/A   Clear
10:35 PM 33.8 °F 28.6 °F 24.8 °F 70% 29.78 in 10.0 mi South 5.8 mph - N/A   Clear
10:55 PM 33.8 °F 27.7 °F 24.8 °F 70% 29.77 in 10.0 mi South 6.9 mph - N/A   Clear
11:15 PM 32.0 °F 26.4 °F 24.8 °F 75% 29.76 in 10.0 mi South 5.8 mph - N/A   Clear
11:35 PM 32.0 °F 25.6 °F 24.8 °F 75% 29.75 in 10.0 mi South 6.9 mph - N/A   Clear
11:55 PM 33.8 °F 27.0 °F 23.0 °F 65% 29.74 in 10.0 mi South 8.1 mph - N/A   Clear